STARLINK-31815, 59801

Orbit data source: Space-Track

STARLINK-31815, 59801 is a payload satellite owned by SpaceX/Seattle (US) in LEO that was launched on Sat, 18 May 2024 UTC via an FALCON 9 launch vehicle from the Air Force Eastern Test Range (AFETR). Payload-class satellites include a variety of spacecraft equipped with specific instruments for various scientific and technological missions. These include communications satellites like Starlink; space stations such as the ISS; scientific satellites like the Hubble; Earth observation satellites from companies like Planet Labs, Umbra, and HawkEye 360; GPS; miniature CubeSats for education and research; and military/defense satellites.

Loading next visibility...
Identifier
59801, 2024-093V
Orbit
LEO
Country
Flag of USUS
Related business
Manufacturer
SpaceX/Seattle
Mission
Operational spacecraft
Bus & Motor
STARLINK V2M, Unknown motor
Mass
730 kg wet, ~700 kg dry
Launch date (UTC)
2024-05-18 (1 year ago)
Launch vehicle
FALCON 9
Launch site
Air Force Eastern Test Range (AFETR)
Object type
Payload
Rocket body
Debris
Shape & HBR
Unknown shape, 17.7 m
Radar Cross Section
Large (>1 m²)

Expand to show TLE details & history
Last TLE update: 10 hours ago

TLE from 10 hours ago
0 STARLINK-31815
1 59801U 24093V   25292.25783261  .00001016  00000-0  46437-4 0  9991
2 59801  43.0046 287.7697 0000996 273.7361  86.3377 15.27584310 81066
Epoch: 2025-10-19T06:11Z
TLE epoch observation values (Epoch: 2025-10-19T06:11:16.737Z)
Latitude
-0.00001°
Longitude
166.97287°
Altitude
482.769 km
Speed
7.626 km/s
True Right ascension
19h 11m 04s
True Declination
0° 00' 00"
Sunlit
Object was in daylight at epoch
Visualization orbit readout
Latitude
Unknown
Longitude
Unknown
Altitude
Unknown
Speed
Unknown
Apparent Right ascension
Unknown
Apparent Declination
Unknown
Sunlit
N/A
Visualization observer readout
Local Sidereal Time
10:51:19
Azimuth
Unknown
Elevation
Unknown
Doppler factor
Unknown
Orbital elements
Apogee altitude
485.664 km
Perigee altitude
484.297 km
Semi-major axis
6,863.118 km
Eccentricity
0.0001
Inclination
43.0046°
RAAN
287.7697°
Arg. of periapsis
273.7361°
True anomaly
86.34909°
Mean anomaly
86.3377°
Eccentric anomaly
86.3434°
Mean motion
3.81734 °/min
Orbital period
94.31 mins
BSTAR
0.000046437
Loading maneuver chart data...
Computing Atmospheric mass density...
Loading historical data...
Loading historical data...
Loading historical data...
Loading historical data...
Loading historical data...
Loading historical data...
Loading historical data...

Documentation

Showing up to 5 results
|